Theta_e
341 342 343 344 345 343 343 344 347 347 348 349 350 349 351 352 353 355 354 355 356 357 359 360 359 358 357 356 358 358 356 356 356 354 354 354 356 358 357 356 356 359 356 354 356 355 358 360 359 359 362 364 364 366 368 368 367 362 366 368 367 365 367
341 341 342 344 345 345 345 346 348 348 349 350 350 352 352 352 353 354 355 356 357 357 358 358 359 358 357 357 356 358 358 356 357 356 354 354 357 359 359 360 358 360 360 359 357 360 360 359 361 360 360 362 363 366 364 367 368 367 365 367 364 363 366
344 345 345 345 346 346 348 347 348 348 349 350 352 351 351 354 355 355 355 355 357 358 358 357 359 357 357 357 356 357 357 355 355 354 353 351 355 355 358 361 359 358 358 360 361 358 360 360 363 363 362 362 360 363 365 365 366 364 366 367 364 361 364
346 347 348 348 349 350 349 349 348 348 348 351 352 352 353 355 356 358 359 358 356 357 356 356 356 355 355 356 355 356 356 355 356 354 352 351 353 354 357 359 359 360 357 358 359 359 357 360 360 363 363 362 361 362 363 365 364 365 365 366 363 365 365
346 347 348 349 349 349 350 350 349 350 349 352 354 354 354 355 355 357 357 356 355 355 355 354 354 354 355 355 353 353 354 353 354 354 354 353 354 355 356 356 357 357 357 358 360 361 362 362 360 361 361 364 362 362 363 363 363 365 367 369 367 365 363
343 346 347 349 349 350 349 349 350 350 350 351 353 355 353 353 352 353 355 355 354 355 356 356 354 355 353 353 354 353 355 355 357 357 354 355 355 351 352 354 355 357 355 356 358 359 360 360 360 359 359 359 359 358 361 361 361 363 365 367 367 365 361
342 345 347 348 349 347 349 350 350 351 353 355 356 354 352 351 350 352 353 351 353 354 352 353 354 355 355 355 354 355 354 353 355 354 354 353 353 353 352 353 355 354 356 358 358 359 358 358 360 361 360 359 362 360 363 364 365 365 367 367 369 369 368
343 344 347 347 348 348 349 350 350 352 353 352 351 351 352 349 350 351 351 349 350 353 353 350 353 356 357 356 356 354 353 354 353 355 353 351 350 351 350 351 353 355 356 355 358 359 358 359 359 360 360 360 361 362 362 364 368 366 365 366 366 367 362
344 346 346 347 348 350 350 351 352 353 352 351 350 350 350 350 350 351 352 353 354 354 355 353 353 356 358 357 357 355 354 354 353 353 352 349 347 347 348 349 352 355 354 353 353 357 357 356 357 360 362 363 363 364 365 368 367 367 365 366 367 367 363
343 343 346 348 349 351 352 352 352 353 351 351 351 352 351 352 352 353 354 355 355 356 358 357 357 356 358 358 357 356 355 353 353 351 351 349 347 346 347 347 348 352 352 352 351 352 356 356 357 360 363 363 363 364 367 367 367 367 367 368 367 363 359
342 343 344 345 348 349 350 349 347 349 350 353 353 352 352 351 352 352 354 355 355 357 358 356 357 357 358 359 358 356 354 353 352 352 352 351 348 346 346 346 345 348 350 351 349 350 352 357 359 359 362 364 363 363 365 366 366 367 365 365 364 361 358
341 342 343 345 347 347 346 346 347 348 350 351 352 353 353 354 353 353 356 355 357 356 358 357 357 356 357 359 358 357 354 353 352 352 352 352 351 349 347 347 345 345 346 349 350 350 349 352 358 360 363 365 364 364 365 365 366 366 369 367 364 361 360
341 342 345 344 345 345 345 345 345 346 349 349 351 352 354 355 355 355 356 357 356 356 356 358 357 357 358 357 357 356 354 352 352 353 352 353 354 354 351 348 347 346 345 347 348 348 347 349 355 361 364 366 365 362 363 365 366 367 372 368 365 363 362
337 342 343 344 343 342 342 343 345 346 347 348 349 351 351 352 353 354 356 355 355 356 355 355 357 358 359 358 356 357 356 356 356 357 357 356 357 358 356 351 349 348 349 348 348 347 347 346 348 355 360 361 364 365 365 366 364 369 372 369 366 362 361
340 340 341 341 342 341 342 342 343 345 345 347 347 348 350 351 352 353 354 355 356 355 355 356 357 357 357 357 356 358 360 360 361 360 360 360 360 361 362 360 354 350 351 352 350 347 348 349 347 348 353 358 361 365 365 362 360 367 370 369 365 363 360
339 340 340 341 341 340 340 340 341 343 343 344 344 345 347 349 351 352 353 353 353 354 356 355 355 355 356 357 358 359 361 362 363 362 362 363 364 365 366 364 361 357 355 354 352 354 354 353 351 349 348 351 358 362 361 357 357 368 364 363 363 363 360
340 341 341 340 341 340 339 340 340 341 342 342 342 343 345 347 349 350 351 352 353 354 354 354 354 354 356 356 358 360 362 362 363 364 362 363 365 366 367 367 364 361 360 358 358 357 359 357 353 352 349 347 350 355 357 357 355 358 346 348 356 362 362
338 342 341 340 340 339 339 339 339 339 339 341 342 343 344 345 346 347 348 351 352 353 355 354 353 352 354 356 357 360 360 361 362 362 363 364 364 365 367 366 365 364 364 361 359 362 360 356 356 357 354 351 349 350 354 354 354 341 342 344 345 353 360
340 340 341 340 338 337 338 338 338 339 341 342 343 343 344 345 345 345 347 348 350 353 353 353 353 354 353 354 357 357 359 361 361 361 363 364 364 365 365 366 365 365 363 361 361 360 362 362 358 358 357 354 356 356 355 357 340 338 340 341 340 343 356
339 340 340 339 337 337 338 339 339 340 341 341 342 343 343 343 342 343 345 346 347 348 351 351 352 353 353 354 354 356 358 359 360 360 361 365 365 365 365 364 364 364 363 362 363 362 361 360 361 359 361 359 358 360 356 357 342 337 338 338 337 340 348
338 339 340 338 336 337 338 338 339 339 339 340 340 340 340 341 342 342 341 342 343 346 347 348 349 351 352 353 355 355 356 357 357 359 360 363 364 364 364 364 365 365 364 363 363 363 363 362 362 361 361 361 360 359 359 348 331 330 334 334 334 337 348
338 338 337 337 336 337 337 337 337 337 337 338 338 337 338 338 340 339 339 341 341 343 346 346 348 350 352 351 353 355 356 356 356 357 360 361 362 363 363 364 364 363 364 364 364 365 365 365 364 362 361 361 361 361 357 340 323 327 328 328 329 336 351
338 337 337 338 339 338 339 339 338 337 336 336 337 337 338 338 338 338 338 339 340 342 343 343 345 348 351 352 353 353 355 356 356 356 358 360 360 361 362 362 362 362 363 363 363 364 366 365 364 364 363 362 361 360 354 342 327 322 324 324 326 337 354
337 338 337 338 338 338 339 338 338 337 336 337 336 337 338 338 338 338 338 338 339 340 340 341 343 347 348 350 352 354 354 356 356 356 357 358 358 359 361 363 363 362 363 362 362 362 364 365 364 364 364 362 360 359 353 347 331 320 321 321 324 341 357
338 337 338 337 336 336 337 336 336 336 336 337 336 337 338 338 338 337 336 337 338 339 339 339 341 344 346 349 351 352 354 354 355 356 356 357 356 357 359 361 362 363 363 363 363 362 363 362 360 360 360 360 358 350 351 345 333 318 320 320 322 336 357
336 336 336 337 337 336 336 336 335 335 335 335 335 337 337 337 337 336 335 336 338 339 340 341 342 344 345 347 350 352 352 354 354 355 355 356 358 359 359 361 361 362 362 362 361 359 359 358 357 355 354 354 351 349 350 347 344 337 319 319 321 327 354
336 336 335 334 334 334 334 334 334 333 333 334 336 337 337 336 335 335 336 337 337 338 341 343 345 346 346 346 346 348 350 352 353 354 355 357 358 361 359 359 360 361 361 361 360 358 354 354 355 352 351 351 350 349 350 349 347 340 319 319 323 327 341
334 334 334 335 334 333 332 333 333 333 333 335 335 336 337 336 334 335 336 336 337 340 342 343 344 345 346 347 346 345 346 350 352 353 354 355 357 355 355 360 360 360 361 358 355 354 353 351 349 348 346 345 345 345 344 343 341 342 320 318 322 327 333
334 332 332 333 332 332 331 332 332 331 333 334 336 335 335 335 333 334 335 335 338 340 341 342 342 344 345 346 346 346 345 346 349 352 353 353 355 357 358 360 359 357 356 354 351 349 346 344 343 341 340 340 340 341 339 339 337 333 333 317 313 314 320
335 333 333 331 333 333 332 332 331 331 334 335 335 335 335 334 332 332 333 334 337 338 339 340 341 342 344 346 346 345 346 346 348 351 352 353 354 354 356 356 355 352 349 349 346 343 341 338 335 334 334 334 335 336 336 337 336 328 327 324 315 315 316
333 332 331 330 329 332 331 330 330 331 333 334 334 334 334 333 332 332 332 335 336 336 337 339 339 340 340 344 346 348 348 347 348 349 351 351 353 353 352 352 350 346 345 346 343 340 337 335 333 331 330 330 331 331 331 329 328 329 325 322 320 317 316
331 332 330 330 332 331 331 331 332 332 332 332 332 332 334 334 333 331 332 335 336 336 335 337 338 337 339 340 343 345 347 347 347 348 350 351 351 351 348 347 344 342 341 341 340 338 335 331 331 330 328 327 327 327 327 328 327 328 328 330 330 326 321
332 330 330 331 330 330 330 331 330 331 331 330 332 332 333 334 334 334 334 334 335 335 335 335 334 333 333 333 335 337 339 338 337 334 331 330 330 331 333 335 337 336 335 335 333 333 331 329 328 325 324 321 321 323 323 325 326 327 328 331 331 329 330
330 329 330 330 331 331 331 331 330 330 329 329 330 332 333 334 333 333 333 334 334 333 332 330 329 329 327 326 326 327 327 327 326 323 319 317 318 321 325 325 326 325 323 326 329 327 326 327 328 325 320 318 318 319 320 320 322 323 323 325 327 329 331
330 330 330 330 330 330 331 330 329 329 330 329 330 332 333 333 333 333 332 332 332 331 329 328 328 326 326 324 323 322 322 320 320 319 317 316 314 312 311 314 317 318 318 317 319 326 327 324 323 322 321 319 318 317 316 317 317 318 314 321 316 325 327
330 329 330 330 331 331 330 330 330 329 329 329 332 333 333 333 333 332 331 331 331 330 328 328 327 325 323 322 321 320 319 319 318 318 318 317 315 312 310 309 304 309 311 312 313 309 307 311 318 319 319 317 317 318 318 317 317 305 300 299 300 303 306
329 329 329 329 328 329 330 330 329 329 328 329 331 332 332 333 333 332 332 332 331 330 329 329 326 325 323 322 320 319 319 318 316 316 316 315 314 313 312 309 305 299 302 307 307 301 297 298 302 307 309 317 313 311 308 307 301 297 297 298 298 299 301
330 330 329 329 329 329 328 328 327 326 327 329 331 332 333 331 331 332 331 332 331 330 329 327 325 322 321 320 320 320 320 319 318 317 317 317 318 318 316 315 313 309 299 298 301 300 297 296 296 298 303 306 310 313 308 302 297 296 296 297 298 299 300
Wind_Speed
4 7 10 10 11 12 14 14 13 13 14 12 13 14 14 12 12 11 11 12 13 14 14 13 13 12 13 12 12 11 11 10 9 9 9 8 7 6 6 6 7 6 6 6 6 6 5 5 6 6 6 6 7 6 6 5 5 5 5 4 5 5 5
2 4 6 9 10 11 13 14 13 12 11 12 13 14 12 13 12 12 12 13 14 14 14 14 13 13 13 13 11 12 12 11 10 9 9 8 7 6 6 7 7 6 6 6 4 5 5 6 6 7 7 7 7 6 6 6 5 5 5 4 4 4 4
0 0 2 5 8 9 11 12 13 12 12 11 11 11 13 12 12 14 13 13 14 14 13 14 14 14 13 12 12 12 12 12 11 11 11 10 10 10 9 7 7 7 7 7 6 5 6 7 7 6 7 7 6 6 5 5 5 5 5 4 5 5 5
3 1 1 3 5 7 9 10 12 12 12 11 11 11 12 13 12 12 12 12 14 14 15 15 15 15 14 13 13 12 13 13 12 11 12 11 10 10 9 8 7 7 7 7 7 6 6 6 7 6 6 6 5 5 5 5 5 5 5 5 5 5 5
4 3 1 0 3 5 7 8 9 10 11 10 11 13 13 12 12 11 12 13 13 14 16 16 13 14 13 14 11 11 12 13 13 12 11 10 10 9 9 10 9 9 8 7 7 7 6 6 6 6 6 6 7 6 7 7 7 6 5 5 5 5 5
4 4 4 3 1 2 4 7 8 10 11 11 12 12 12 12 12 12 11 11 12 13 13 14 14 13 14 14 13 12 12 12 11 12 11 10 10 10 10 10 9 9 9 9 7 8 8 7 7 6 6 7 8 7 7 7 7 7 6 6 6 6 5
4 5 4 3 3 1 2 4 6 8 8 10 10 11 10 10 11 11 9 12 15 14 14 14 13 13 12 12 13 13 13 13 13 14 12 12 12 11 11 10 9 9 8 7 8 7 7 7 7 7 6 7 6 6 5 5 5 4 4 4 5 5 6
5 5 5 4 3 1 2 1 3 6 8 9 10 11 11 11 11 11 11 11 14 13 13 14 13 12 11 11 11 13 13 13 12 12 12 13 12 12 12 11 10 9 9 9 8 8 8 8 7 8 7 7 7 6 6 5 4 5 5 5 6 7 6
5 4 5 4 4 3 1 1 3 4 7 8 9 10 11 11 11 10 12 13 11 11 12 12 12 11 11 11 11 13 13 13 12 12 13 14 13 13 13 12 11 10 10 10 9 9 8 8 8 7 6 6 5 5 5 4 5 4 5 5 5 6 6
4 4 4 3 3 3 2 1 1 3 5 6 7 8 9 9 10 9 9 10 10 11 11 11 10 10 11 11 13 14 13 13 12 14 13 13 12 13 13 12 11 11 11 11 9 9 9 8 8 7 7 7 6 6 5 5 5 5 4 6 4 3 2
2 2 3 3 4 4 3 2 2 2 4 5 6 7 7 9 9 9 9 9 10 10 10 10 10 10 10 11 12 13 12 13 13 13 14 13 12 14 14 13 12 11 11 11 10 10 9 8 8 7 8 7 7 7 6 6 6 6 7 3 3 2 2
1 2 3 4 4 4 4 4 3 3 3 4 5 5 6 6 8 9 9 9 9 9 9 9 9 10 10 10 11 11 13 13 13 14 14 14 14 14 13 12 12 12 11 11 10 10 9 9 8 8 9 8 8 7 7 7 7 7 5 3 3 3 6
1 2 3 4 4 3 3 3 4 4 4 4 4 5 5 6 7 8 8 9 10 9 9 9 9 10 11 11 11 11 12 13 13 12 13 13 12 12 12 12 12 12 12 11 11 11 11 10 10 8 9 9 8 8 7 7 7 6 5 5 7 7 6
1 1 2 2 2 4 4 3 4 4 3 4 4 4 5 6 7 7 8 8 7 7 8 8 10 11 12 12 12 11 12 12 12 11 11 10 10 11 12 12 12 11 11 10 11 11 11 11 11 10 10 9 8 8 8 8 8 6 7 6 5 5 6
2 1 1 1 2 2 3 4 4 4 5 5 5 6 4 4 5 6 8 8 7 6 8 8 9 10 12 12 12 11 11 10 10 10 10 10 10 10 10 11 11 11 10 10 10 10 11 11 11 11 10 9 8 8 8 8 8 7 7 6 6 6 6
2 2 1 1 1 1 2 3 3 4 4 4 4 4 5 5 4 4 6 7 8 9 8 8 9 10 11 11 11 11 11 10 10 10 10 10 10 10 11 11 11 11 11 11 11 10 10 9 10 11 10 10 9 9 9 8 7 7 10 7 5 5 5
2 2 2 1 0 1 2 3 3 4 4 5 5 5 4 4 4 5 5 5 6 7 9 9 10 11 11 11 11 11 11 10 10 10 11 11 11 11 11 11 10 10 11 11 11 11 10 10 11 11 11 11 10 10 9 8 6 14 12 10 9 7 6
2 2 1 1 1 2 3 4 4 5 5 5 5 5 5 4 4 4 4 5 5 6 6 8 9 11 12 12 12 12 12 11 11 11 12 11 12 12 11 11 11 10 11 11 11 10 11 11 12 10 10 10 10 10 9 7 11 14 13 12 12 9 7
1 1 1 0 1 2 3 4 4 5 6 5 5 5 5 5 6 5 5 5 6 7 6 8 9 9 10 12 12 13 12 11 11 12 12 12 12 12 11 11 11 11 11 12 11 10 10 10 11 11 10 10 9 9 10 5 10 13 13 12 12 11 9
2 1 1 1 2 2 3 5 5 5 6 6 6 6 5 5 5 6 6 6 6 6 7 7 8 9 10 11 12 12 12 13 12 12 13 12 12 11 12 12 12 12 11 11 11 10 10 11 11 10 10 9 10 9 10 7 10 10 11 11 11 9 7
1 1 2 2 3 4 4 5 6 6 6 6 6 7 7 6 5 5 6 6 6 6 7 7 8 8 10 11 11 12 12 13 13 13 13 13 12 12 12 12 11 12 11 10 10 10 10 10 10 10 9 10 9 9 9 5 10 8 9 9 9 7 7
0 1 2 3 4 4 4 5 6 6 6 6 7 6 6 7 6 6 6 6 7 7 7 7 8 9 9 10 11 12 12 13 14 14 13 13 13 13 13 12 12 11 10 10 9 9 9 9 9 9 10 10 10 9 9 6 7 7 8 7 7 8 6
0 2 3 3 3 4 5 5 5 6 7 6 7 7 6 6 6 7 7 7 7 7 7 8 9 10 11 10 10 11 12 12 13 14 14 14 14 14 13 13 12 12 10 10 9 9 9 9 8 8 8 8 8 9 6 6 5 5 6 7 7 8 6
1 1 2 3 4 5 5 5 5 6 6 7 7 6 6 6 6 7 7 7 7 7 8 8 9 10 10 11 12 12 12 12 13 14 14 14 15 14 13 12 11 11 10 10 10 9 9 8 7 7 8 10 10 8 7 6 7 6 6 7 9 9 6
1 1 2 3 4 5 6 6 6 7 6 6 7 6 7 7 7 7 7 7 7 7 8 9 9 10 10 10 11 12 12 12 12 13 14 14 15 14 14 13 12 10 10 10 9 9 8 8 8 9 8 8 6 7 8 7 7 8 8 10 11 10 5
0 1 1 3 4 5 6 5 6 6 6 7 7 7 7 7 7 7 7 7 7 8 8 9 9 9 10 10 10 11 12 12 13 13 14 14 13 13 13 12 11 11 10 10 9 8 7 8 8 10 8 8 6 5 5 7 7 7 8 10 11 11 6
0 1 3 4 5 6 6 6 5 6 7 7 7 7 7 6 7 7 7 7 7 8 8 8 8 9 8 9 9 10 12 12 13 14 14 13 12 11 11 11 11 11 10 9 8 8 8 10 8 8 8 7 7 6 5 5 6 5 2 7 11 12 8
2 1 2 3 4 5 6 6 6 6 7 7 7 7 7 7 8 8 7 7 7 8 8 9 9 9 9 10 10 11 11 12 13 14 13 13 11 12 13 11 10 9 9 8 8 10 10 10 9 9 8 8 8 7 7 7 8 7 4 4 4 2 3
2 2 3 4 4 5 6 6 6 7 7 7 7 7 7 8 8 8 8 8 8 8 9 9 9 9 9 10 9 9 11 11 12 12 11 12 12 11 9 8 8 8 8 8 9 10 11 11 10 9 9 9 8 8 8 7 7 6 6 7 10 10 10
0 1 3 4 4 4 6 6 6 7 6 6 7 7 7 7 8 8 9 9 9 9 9 10 9 9 9 9 8 8 9 10 11 12 12 12 11 10 9 8 9 7 7 8 10 11 10 9 10 10 10 10 10 8 8 8 7 7 8 10 13 13 14
1 2 3 3 4 5 5 5 6 7 7 7 8 7 7 7 8 9 10 10 9 9 9 9 9 8 8 8 9 6 7 8 9 9 10 10 10 9 7 7 8 8 8 8 10 12 11 11 11 11 10 10 11 11 10 9 9 7 7 12 13 15 15
1 2 3 3 3 4 5 5 5 5 7 7 7 7 6 6 7 9 9 9 9 9 8 8 7 7 6 6 6 6 6 7 4 3 4 6 6 6 7 7 7 6 8 8 10 11 11 12 11 10 9 8 8 11 10 9 9 8 8 10 14 14 16
1 2 3 3 3 4 4 5 5 6 7 7 7 7 7 7 7 7 8 9 9 8 7 6 6 6 6 6 6 5 5 7 6 7 10 11 11 10 8 6 4 5 8 10 10 12 12 11 12 11 9 11 10 9 10 10 9 7 6 9 11 11 12
1 1 1 2 2 3 3 3 5 6 6 6 6 7 7 7 7 7 8 8 8 7 6 6 7 7 8 8 8 7 7 8 14 13 10 10 11 11 11 10 10 9 9 6 2 8 11 11 12 13 13 13 11 10 8 8 8 5 7 7 7 8 8
1 1 1 0 1 2 3 3 5 5 5 6 6 6 6 7 7 6 7 7 7 6 7 8 10 10 10 9 9 10 10 10 9 10 13 13 14 13 12 11 11 12 11 11 8 6 4 9 8 7 8 9 11 13 11 9 9 5 4 9 8 8 10
2 2 2 1 0 2 2 3 4 4 5 5 5 5 6 6 6 6 6 6 6 7 8 8 9 11 10 9 10 10 10 9 10 10 9 11 12 12 12 18 19 15 14 11 17 20 20 14 10 8 4 7 7 4 9 11 9 9 12 14 14 15 14
3 3 3 2 2 1 3 4 3 4 4 5 5 4 5 6 6 6 6 7 7 8 9 9 9 9 9 10 9 9 9 10 10 10 10 10 11 13 12 10 15 19 21 23 19 18 17 17 17 17 13 8 5 10 14 16 16 12 11 15 14 14 13
4 3 2 3 2 2 3 3 4 4 4 4 4 5 5 7 7 7 7 8 9 9 10 10 10 9 9 10 10 12 12 12 13 12 14 13 12 11 12 12 13 16 20 17 22 20 18 17 17 14 12 9 7 6 7 10 11 12 13 13 14 13 12
Wind_Direction
221 214 213 216 216 211 208 207 209 202 194 182 186 190 206 197 193 190 190 186 192 192 192 196 201 202 202 202 201 201 205 207 206 207 210 215 221 226 219 224 216 222 230 219 205 213 210 210 230 228 217 211 222 215 222 229 233 234 224 232 242 256 262
219 213 214 214 216 216 213 208 205 206 201 198 192 189 196 192 190 195 191 188 192 193 193 195 199 205 205 205 202 202 206 210 211 210 210 209 214 221 232 221 232 215 228 244 230 216 211 206 214 221 226 218 222 225 223 222 228 239 246 225 237 244 247
93 236 206 216 217 218 214 210 206 206 203 202 202 190 195 190 191 193 193 192 189 193 195 195 196 203 207 207 208 204 206 211 211 209 210 209 204 217 214 226 224 225 224 224 228 226 209 219 209 221 225 230 233 214 224 230 223 232 232 231 236 230 231
54 39 207 220 230 225 219 212 206 205 204 203 199 197 195 191 190 193 193 196 194 193 196 198 195 200 202 205 210 210 210 213 217 215 214 216 211 208 216 212 221 229 220 223 220 221 230 219 216 209 220 236 236 240 235 237 237 226 225 224 236 235 238
57 42 49 171 221 223 223 213 208 207 204 195 201 196 184 183 191 195 199 198 204 203 200 203 199 197 199 202 208 210 212 213 212 219 221 220 220 221 215 217 213 220 225 222 215 219 225 238 233 217 209 217 229 216 223 226 230 228 233 230 240 245 244
52 35 27 10 16 226 224 219 213 206 200 193 186 182 186 191 196 200 203 213 207 205 207 208 211 202 203 202 206 210 209 212 215 214 221 223 222 219 218 217 224 221 218 219 223 217 214 223 235 231 222 212 219 228 224 220 224 227 222 229 247 261 262
39 38 34 30 358 352 233 232 212 202 190 190 192 200 207 208 214 206 202 210 213 201 204 209 211 210 208 210 207 209 212 211 210 216 215 220 219 223 221 220 222 224 226 219 221 225 221 216 223 228 226 239 243 238 230 232 248 251 252 247 248 252 267
30 31 35 27 25 8 335 256 221 200 207 213 210 214 213 212 213 210 196 216 219 208 206 211 208 207 210 211 216 214 211 214 213 212 218 221 219 219 222 220 218 221 225 226 222 222 224 222 221 216 224 232 230 240 244 236 225 246 248 250 248 257 260
38 32 28 24 16 17 357 236 226 217 218 222 221 218 217 216 215 211 211 219 212 209 208 211 211 203 205 206 211 218 218 215 214 216 218 222 223 220 220 217 218 217 220 224 225 214 222 220 218 221 223 228 237 241 246 242 247 248 260 268 265 264 287
36 13 27 27 29 29 23 340 261 253 224 222 228 230 226 227 227 220 217 216 218 213 209 204 212 209 205 207 209 212 219 221 220 220 218 220 223 226 222 222 219 214 222 224 224 222 212 219 225 214 212 221 230 234 240 239 234 243 243 241 257 18 336
31 16 17 15 30 27 12 356 301 271 253 246 238 235 234 228 223 223 220 215 213 219 213 216 212 216 211 210 216 217 217 224 223 223 221 222 225 223 224 223 225 220 221 224 226 227 223 208 214 217 211 217 224 228 227 231 235 237 245 251 82 168 261
41 24 28 23 25 23 18 12 347 328 299 266 256 256 249 247 237 222 220 217 216 222 224 224 221 220 218 220 223 230 228 220 223 225 222 221 225 229 226 225 224 228 222 222 227 228 226 224 212 208 209 216 219 220 222 226 230 235 225 161 184 197 224
50 40 33 29 29 29 22 12 359 346 329 308 276 252 256 251 241 239 229 223 217 221 222 219 223 222 216 217 222 228 232 230 222 225 227 222 223 226 229 230 228 226 229 222 223 227 226 220 211 212 214 214 220 222 219 221 225 225 177 196 197 214 226
138 107 63 53 50 34 22 17 10 2 355 338 330 313 273 251 244 238 235 231 231 230 229 224 218 221 221 218 223 225 228 234 237 229 228 230 223 224 228 230 230 230 229 233 228 226 228 226 214 210 219 223 218 219 221 219 220 200 187 200 212 226 229
149 134 116 68 74 43 23 8 7 7 358 2 352 339 323 286 266 251 239 239 236 228 228 233 236 227 225 228 228 226 226 227 231 236 231 225 225 222 225 229 231 231 234 230 233 231 227 228 230 221 217 219 218 217 219 221 221 206 191 191 200 224 231
171 164 179 132 50 22 6 350 343 354 352 355 350 334 332 326 300 272 258 247 241 239 233 227 232 238 239 235 229 227 224 224 225 225 227 224 221 219 217 221 228 233 228 229 230 232 236 234 232 234 226 222 211 219 222 227 229 169 154 164 197 203 223
186 193 180 165 145 325 311 295 306 316 329 337 332 331 323 322 315 308 295 274 262 250 242 234 232 234 233 234 236 232 228 225 225 224 223 221 221 220 221 224 226 230 232 229 227 228 221 225 227 229 230 228 227 223 226 225 208 141 154 164 191 212 222
219 197 208 103 340 323 310 313 314 308 308 320 320 321 325 317 312 296 290 296 278 259 255 246 239 235 235 235 235 234 231 227 224 226 226 223 223 224 224 224 225 225 224 226 226 221 224 220 221 221 228 233 231 230 228 231 121 149 161 180 189 209 237
258 254 236 343 335 314 308 307 307 311 313 311 316 312 321 329 319 318 332 320 321 316 276 248 242 245 242 238 236 234 231 230 226 227 228 226 224 223 224 224 224 222 222 223 223 225 222 225 220 215 217 224 227 229 232 182 146 156 173 183 192 200 234
260 279 298 295 322 310 317 310 314 321 321 319 325 330 332 322 301 296 301 306 310 298 303 294 259 246 244 240 238 237 236 233 231 230 228 226 226 224 223 223 224 224 224 226 223 220 222 222 222 220 216 215 218 213 231 160 148 161 175 185 186 190 209
249 332 322 321 308 352 344 326 323 316 322 330 330 312 307 302 296 299 294 290 282 279 277 282 298 274 250 244 244 240 238 238 234 232 231 227 224 224 223 222 224 224 224 225 223 217 214 217 220 223 217 216 217 212 216 134 144 172 176 182 179 156 208
182 329 323 339 342 330 331 333 326 327 333 326 310 309 309 306 307 297 288 287 280 277 268 269 268 267 267 252 243 243 239 236 235 233 230 228 223 221 219 219 221 223 224 226 225 219 212 208 216 218 218 215 218 217 205 118 152 170 182 182 172 155 200
326 335 327 331 333 327 333 334 333 322 316 310 306 304 302 302 299 290 287 282 279 274 271 262 256 254 253 256 253 246 244 241 239 237 233 229 226 223 221 219 219 220 220 220 218 214 208 208 207 211 213 209 203 198 166 139 159 186 184 190 171 187 204
206 277 311 350 340 333 329 340 337 320 315 310 308 308 302 301 296 293 287 284 275 269 264 261 258 256 254 252 251 249 244 245 243 241 237 232 229 226 223 221 219 218 213 214 209 211 210 208 190 177 182 190 193 187 159 148 148 175 187 191 183 216 191
156 328 4 332 339 344 343 337 329 317 314 316 310 323 319 309 300 291 287 281 278 269 263 261 261 261 258 258 254 254 254 247 245 243 240 237 235 229 225 221 219 215 212 210 210 208 201 193 188 190 193 197 187 136 144 142 150 180 193 193 195 208 185
99 338 310 329 349 356 327 324 314 318 323 319 325 326 319 315 305 300 292 286 280 272 266 263 261 262 264 265 265 260 252 249 247 244 243 240 236 234 230 224 220 213 209 205 207 202 186 186 189 180 168 161 148 150 156 140 153 169 198 202 190 205 169
85 2 335 336 352 338 324 325 325 324 325 326 325 325 322 315 307 302 299 295 287 281 284 288 288 279 267 252 254 260 259 251 246 245 241 241 239 236 234 229 221 214 207 196 189 169 169 190 180 167 149 162 160 169 165 156 140 132 203 199 192 193 179
147 143 10 2 337 325 332 323 322 322 324 327 325 327 324 321 312 305 303 299 294 299 305 299 294 287 278 267 249 245 253 258 252 245 244 240 238 234 233 229 222 214 199 182 176 175 178 168 163 163 155 153 150 141 134 129 132 140 71 72 80 113 299
18 338 346 318 327 336 329 324 324 329 326 326 331 330 326 322 316 314 313 304 309 311 308 306 300 290 278 271 264 243 241 246 253 249 240 240 236 233 223 207 196 191 186 180 161 165 164 163 156 148 148 143 141 138 131 117 109 99 112 86 86 75 75
186 307 312 314 320 339 331 323 330 326 328 329 335 334 332 328 322 321 316 314 320 313 310 307 307 300 290 279 270 263 251 244 243 246 241 238 234 231 224 198 192 178 172 173 158 157 151 149 150 147 149 145 139 134 124 114 107 89 84 95 93 90 90
4 330 311 325 332 344 326 331 325 325 331 337 338 336 333 328 322 320 322 328 324 320 317 316 315 312 297 295 291 278 259 247 244 243 241 240 235 227 198 187 178 164 169 163 160 161 158 153 153 149 147 145 141 132 119 107 101 96 86 92 90 91 91
226 279 302 311 349 337 326 318 310 322 334 338 341 337 334 333 328 327 330 328 329 327 327 323 325 323 324 319 323 313 291 262 264 300 269 240 237 208 182 182 169 156 165 157 161 159 156 152 152 147 139 132 130 128 122 119 122 128 124 109 97 84 78
52 345 325 333 4 319 323 332 333 343 337 341 348 342 342 344 342 341 338 339 339 343 346 353 2 9 12 17 15 29 44 67 83 74 57 53 58 53 48 53 78 125 150 159 156 154 151 149 151 140 136 138 133 128 123 124 124 121 122 117 109 105 100
183 228 26 342 2 319 324 337 338 339 343 347 347 338 341 354 356 354 354 355 3 6 17 29 32 39 40 45 52 47 43 58 68 70 63 50 54 60 64 64 67 59 40 25 76 148 149 154 152 148 143 138 133 125 116 113 111 114 126 101 105 107 101
174 225 221 194 34 341 6 344 344 345 351 353 342 342 352 1 3 8 12 21 28 38 47 53 58 58 59 60 65 64 66 67 67 75 80 78 70 62 54 59 68 74 67 40 23 24 118 137 117 116 125 129 137 137 131 126 124 116 55 84 78 91 102
194 170 168 107 7 30 20 5 357 357 2 347 344 353 5 6 18 22 30 34 44 52 61 69 71 71 69 69 70 69 66 58 63 70 75 82 87 85 73 57 59 68 68 58 40 39 45 53 68 56 60 109 92 77 131 135 127 110 99 89 78 71 74
161 168 150 136 120 65 27 22 14 12 15 3 343 14 18 29 29 41 49 56 62 63 67 67 70 73 72 70 68 71 76 80 77 76 78 81 85 86 88 77 47 41 68 76 55 42 39 42 52 61 34 360 76 64 70 100 109 112 108 96 90 89 86
167 155 146 142 146 107 69 53 40 37 35 10 7 37 37 39 43 48 61 70 73 76 75 75 77 75 75 77 76 78 83 87 89 91 91 89 88 87 90 88 90 64 34 54 85 74 48 42 41 40 67 52 49 93 78 81 103 112 103 98 97 96 98